Change the Weather History Date:

Tuesday, November 27, 2012

  Actual Average Record
Temperature  
Mean Temperature 75 °F -  
Max Temperature 86 °F 79 °F - ()
Min Temperature 64 °F 64 °F - ()
Cooling Degree Days 10    
Growing Degree Days 25 (Base 50)    
Moisture  
Dew Point 63 °F    
Average Humidity 66    
Maximum Humidity 83    
Minimum Humidity 37    
Precipitation  
Precipitation 0.00 in 0.06 in - ()
Sea Level Pressure  
Sea Level Pressure 29.96 in    
Wind  
Wind Speed 7 mph ()    
Max Wind Speed 12 mph    
Max Gust Speed -    
Visibility 7.5 miles    
Events Fog    
T = Trace of Precipitation, MM = Missing Value Source: Averaged Metar Reports

Daily Weather History Graph

Daily Weather History Graph

Search for Another Location

Airport or City:

Trip Planner

Search our weather history database for the weather conditions in past years. The results will help you decide how hot, cold, wet, or windy it might be!

Date:

Astronomy

Nov. 27, 2012 Rise Set
Actual Time 5:36 AM CST 5:12 PM CST
Civil Twilight 5:14 AM CST 5:35 PM CST
Nautical Twilight 4:48 AM CST 6:01 PM CST
Astronomical Twilight 4:22 AM CST 6:26 PM CST
Moon 4:40 PM CST (11/27) 4:45 AM CST (11/27)
Length of Visible Light 12h 20m
Length of Day
11h 35m
Waxing Gibbous, 99% of the Moon is Illuminated
Nov 27
Waxing Gibbous
Nov 28
Full
Dec 6
Last Quarter
Dec 13
New
Dec 19
First Quarter

Hourly Weather History & Observations

Time (CST) Temp. Heat Index Dew Point Humidity Pressure Visibility Wind Dir Wind Speed Gust Speed Precip Events Conditions
12:00 AM 70 °F - 63 °F 72% 29.86 in 12 mi NE 11.5 mph - -   Scattered Clouds
12:00 AM 69.8 °F - 62.6 °F 78% 30.01 in 6.2 mi NE 11.5 mph - N/A   Scattered Clouds
1:00 AM 69.8 °F - 62.6 °F 78% 30.00 in 6.2 mi East 9.2 mph - N/A   Scattered Clouds
2:00 AM 68.0 °F - 62.6 °F 83% 29.98 in 6.2 mi ENE 8.1 mph - N/A   Scattered Clouds
3:00 AM 68 °F - 62 °F 77% 29.82 in 12 mi NNE 3.5 mph - -   Scattered Clouds
3:00 AM 68.0 °F - 62.6 °F 83% 29.98 in 6.2 mi NNE 3.5 mph - N/A   Scattered Clouds
4:00 AM 66.2 °F - 60.8 °F 83% 29.97 in 6.2 mi ENE 6.9 mph - N/A   Scattered Clouds
5:00 AM 66.2 °F - 60.8 °F 83% 30.00 in 6.2 mi NNE 5.8 mph - N/A   Partly Cloudy
6:00 AM 67 °F - 62 °F 77% 29.89 in 12 mi NE 6.9 mph - -   Scattered Clouds
6:00 AM 66.2 °F - 60.8 °F 83% 30.00 in 6.2 mi NE 6.9 mph - N/A   Partly Cloudy
7:00 AM 73.4 °F - 62.6 °F 69% 30.02 in - NNE 6.9 mph - N/A   Clear
8:00 AM 77.0 °F - 62.6 °F 61% 30.04 in - East 6.9 mph - N/A   Clear
9:00 AM 80 °F - 63 °F 47% 29.87 in 12 mi ESE 10.4 mph - -   Clear
9:00 AM 78.8 °F - 62.6 °F 57% 30.04 in - ESE 10.4 mph - N/A   Clear
10:00 AM 82.4 °F 83.4 °F 62.6 °F 51% 30.04 in 6.2 mi ESE 9.2 mph - N/A   Scattered Clouds
11:00 AM 82.4 °F 82.9 °F 60.8 °F 48% 30.03 in 6.2 mi East 8.1 mph - N/A   Scattered Clouds
12:00 PM 85 °F - 62 °F 37% 29.83 in 12 mi ESE 10.4 mph - -   Scattered Clouds
12:00 PM 84.2 °F 85.0 °F 62.6 °F 48% 30.00 in 6.2 mi ESE 10.4 mph - N/A   Partly Cloudy
1:00 PM 86.0 °F 86.1 °F 60.8 °F 43% 29.98 in 6.2 mi East 8.1 mph - N/A   Scattered Clouds
2:00 PM 84.2 °F 84.4 °F 60.8 °F 45% 29.95 in 6.2 mi ENE 10.4 mph - N/A   Scattered Clouds
3:00 PM 85 °F - 63 °F 38% 29.77 in 12 mi East 8.1 mph - -   Scattered Clouds
3:00 PM 84.2 °F 85.0 °F 62.6 °F 48% 29.94 in 6.2 mi East 8.1 mph - N/A   Scattered Clouds
4:00 PM 80.6 °F 81.8 °F 62.6 °F 54% 29.95 in 6.2 mi East 8.1 mph - N/A   Partly Cloudy
5:00 PM 78.8 °F - 62.6 °F 57% 29.96 in 6.2 mi East 11.5 mph - N/A   Scattered Clouds
6:00 PM 75 °F - 64 °F 60% 29.83 in 12 mi East 3.5 mph - -   Scattered Clouds
6:00 PM 75.2 °F - 64.4 °F 69% 29.98 in 6.2 mi East 3.5 mph - N/A   Scattered Clouds
7:00 PM 73.4 °F - 68.0 °F 83% 30.01 in 6.2 mi NW 5.8 mph - N/A   Scattered Clouds
8:00 PM 71.6 °F - 66.2 °F 83% 30.03 in 6.2 mi SW 3.5 mph - N/A   Scattered Clouds
9:00 PM 71 °F - 67 °F 82% 29.85 in 3 mi WSW 2.3 mph - - Fog Patches of Fog
9:00 PM 71.6 °F - 66.2 °F 83% 30.04 in 6.2 mi WSW 2.3 mph - N/A Fog Patches of Fog
10:00 PM 71.6 °F - 66.2 °F 83% 30.04 in 6.2 mi WNW 3.5 mph - N/A   Mostly Cloudy
11:00 PM 71.6 °F - 64.4 °F 78% 30.02 in 6.2 mi East 5.8 mph - N/A   Mostly Cloudy